Showing default

ESSA 4 (TOS-B), 2657

Orbit data source: Space-Track

ESSA 4 (TOS-B), 2657 is a payload satellite owned by ESSA (US) in SSO that was launched on Thu, 26 Jan 1967 UTC via a THOR DELTA E launch vehicle from the Air Force Western Test Range (AFWTR). Payload-class satellites include a variety of spacecraft equipped with specific instruments for various scientific and technological missions. These include communications satellites like Starlink; space stations such as the ISS; scientific satellites like the Hubble; Earth observation satellites from companies like Planet Labs, Umbra, and HawkEye 360; GPS; miniature CubeSats for education and research; and military/defense satellites.

Loading next visibility...
Identifier
2657, 1967-006A
Orbit
SSO
Country
Flag of USUS
Related business
Manufacturer
RCA/East Windsor
Mission
Non-operational spacecraft
Bus & Motor
TIROS I, Unknown motor
Mass
132 kg wet, 132 kg dry
Launch date (UTC)
1967-01-26 (59 years ago)
Launch vehicle
THOR DELTA E
Launch site
Air Force Western Test Range (AFWTR)
Object type
Payload
Rocket body
Debris
Shape & HBR
Unknown
Radar Cross Section
Medium (>0.1 m² and <1 m²)

Expand to show TLE details & history
Last TLE update: 9 hours ago

TLE from 9 hours ago
0 ESSA 4 (TOS-B)
1  2657U 67006A   25294.81101455 -.00000050  00000-0 -41002-5 0  9995
2  2657 102.0879 116.5289 0073164  26.4677  90.2098 12.69886218722284
Epoch: 2025-10-21T19:27Z
TLE epoch observation values (Epoch: 2025-10-21T19:27:51.657Z)
Latitude
60.22943°
Longitude
-4.05776°
Altitude
1,393.084 km
Speed
7.168 km/s
True Right ascension
21h 13m 36s
True Declination
60° 05' 35"
Sunlit
Object was in daylight at epoch
Visualization orbit readout
Latitude
Unknown
Longitude
Unknown
Altitude
Unknown
Speed
Unknown
Apparent Right ascension
Unknown
Apparent Declination
Unknown
Sunlit
N/A
Visualization observer readout
Local Sidereal Time
23:03:13
Azimuth
Unknown
Elevation
Unknown
Doppler factor
Unknown
Orbital elements
Apogee altitude
1,436.706 km
Perigee altitude
1,323.183 km
Semi-major axis
7,758.081 km
Eccentricity
0.00732
Inclination
102.0879°
RAAN
116.5289°
Arg. of periapsis
26.4677°
True anomaly
91.04813°
Mean anomaly
90.2098°
Eccentric anomaly
90.62897°
Mean motion
3.17623 °/min
Orbital period
113.34 mins
BSTAR
-0.0000041002
Loading maneuver chart data...
Computing Atmospheric mass density...
Loading historical data...
Loading historical data...
Loading historical data...
Loading historical data...
Loading historical data...
Loading historical data...
Loading historical data...
Other satellites on launch #6 in the year 1967 (1967-01-26 UTC)

Documentation

Showing up to 5 results
|